Theta_e
306 306 306 305 305 304 304 304 304 304 304 304 304 304 305 305 305 306 305 307 307 306 306 307 308 310 313 314 314 315 308 310 313 314 316 315 315 316 316 316 315 316 314 314 314
306 306 305 305 305 305 304 304 304 304 304 304 304 304 305 305 305 305 307 306 305 306 307 311 312 311 312 313 313 311 309 313 313 312 311 312 314 314 314 313 313 314 314 313 312
306 306 305 305 305 305 305 304 304 304 304 304 304 304 304 304 304 308 308 308 305 306 308 311 312 312 312 313 313 312 309 313 312 312 312 311 311 313 312 310 312 312 314 313 313
306 306 306 305 305 305 305 305 305 304 304 304 304 305 305 305 307 308 306 306 305 307 308 310 311 311 311 311 312 310 311 312 312 312 311 311 311 310 311 312 311 311 311 312 313
306 306 306 305 305 305 305 305 305 305 304 304 304 305 305 306 306 308 306 306 306 307 309 310 311 312 312 311 311 310 310 311 311 311 310 310 308 307 309 309 311 310 311 310 311
307 306 306 306 306 305 305 305 305 305 305 304 304 305 305 307 308 307 305 306 306 307 309 310 311 311 311 311 310 311 310 310 310 310 310 308 308 308 309 311 310 309 309 310 309
311 308 306 305 306 306 305 305 305 305 305 304 304 304 305 306 308 307 306 306 306 306 308 309 311 310 312 311 311 310 308 308 308 309 308 309 308 307 310 310 310 310 310 309 309
313 312 310 306 305 306 305 305 305 305 304 304 304 304 305 308 308 308 307 307 306 306 308 308 309 311 311 311 310 309 310 309 310 309 310 308 308 309 312 310 310 309 309 309 308
316 315 313 310 306 305 306 305 305 305 304 304 304 304 305 307 307 306 307 308 307 306 307 308 309 311 309 309 310 310 308 311 312 309 309 307 306 308 310 309 309 309 310 310 309
317 317 316 314 309 305 306 306 306 305 304 304 304 306 306 306 306 307 307 309 309 308 308 308 310 308 308 308 308 314 312 310 310 309 307 307 306 307 309 308 309 309 309 309 310
319 318 318 315 312 306 305 306 308 309 305 306 307 306 308 307 307 306 307 309 309 311 310 312 309 308 309 308 309 310 309 308 307 307 306 305 305 307 308 309 306 308 308 309 309
319 318 319 318 315 309 308 306 307 305 304 306 307 307 307 306 307 307 307 308 309 308 309 307 308 308 309 309 309 309 309 307 309 307 307 307 308 307 307 307 309 309 309 309 307
320 319 318 319 319 314 306 306 307 304 306 307 308 307 306 306 307 307 306 308 308 308 309 308 309 309 309 308 308 309 308 309 309 308 308 307 308 308 307 307 308 308 308 308 308
317 319 318 319 316 316 310 305 307 307 308 308 306 306 306 306 307 308 306 308 307 308 308 308 308 308 308 309 307 309 307 308 309 307 309 308 310 308 306 306 306 307 308 308 308
316 317 318 318 315 313 309 306 306 305 314 308 305 305 306 307 305 306 306 308 307 307 307 307 308 308 309 308 307 308 307 308 308 308 309 310 307 308 306 306 305 304 307 307 308
313 317 317 317 317 314 306 306 305 308 308 305 304 306 306 306 306 305 306 306 307 307 306 306 306 307 307 306 307 306 308 308 308 308 307 311 306 306 305 305 306 304 307 308 308
311 314 316 317 316 312 307 306 306 307 305 305 305 306 306 306 307 307 306 306 306 305 304 306 306 305 306 306 306 307 308 307 310 308 312 307 304 306 308 306 304 302 306 307 307
310 312 315 314 314 309 306 307 308 301 305 306 307 306 306 306 307 307 307 306 304 307 303 306 305 305 304 307 306 306 308 310 311 314 315 304 308 312 306 305 306 306 306 307 307
309 311 313 313 312 308 306 308 304 306 309 307 307 307 307 306 307 307 308 306 306 306 311 309 308 304 304 304 304 305 306 308 307 299 308 310 310 309 305 306 304 304 305 306 306
306 308 310 310 310 307 304 309 303 308 306 308 308 306 306 307 305 306 307 306 308 306 309 309 304 302 303 304 303 303 303 306 305 308 311 313 315 313 306 304 303 302 304 306 306
303 308 310 309 310 306 307 305 305 308 306 307 307 310 310 307 306 306 307 306 306 307 307 307 307 302 302 303 303 303 303 304 307 311 314 311 315 313 311 306 304 302 305 306 307
302 304 307 309 304 301 304 305 308 309 305 306 306 307 308 308 305 306 306 306 304 306 307 307 305 300 302 302 302 302 305 305 310 309 307 309 313 310 306 305 304 304 307 307 307
301 303 306 307 307 304 303 307 309 310 308 307 307 306 307 308 307 306 307 302 303 305 307 309 305 301 304 304 301 303 303 305 308 306 305 310 314 309 307 307 307 306 307 307 306
302 302 304 305 305 303 304 305 307 309 309 309 309 308 308 308 308 307 308 304 302 302 303 305 305 305 307 309 304 301 303 304 307 305 309 308 311 315 305 304 306 306 307 306 305
299 302 301 303 303 304 304 304 305 308 309 309 308 308 309 308 307 308 309 304 303 302 302 305 304 301 303 305 305 304 303 304 305 308 311 309 310 314 311 305 306 309 308 307 306
299 300 300 299 302 302 304 304 305 306 308 308 308 306 307 310 308 306 307 306 308 302 302 303 303 302 303 301 302 304 304 302 303 301 302 303 307 310 312 311 310 311 310 310 311
297 300 301 300 299 301 302 302 303 304 304 305 306 307 308 308 308 309 309 307 307 305 303 304 304 305 302 301 304 306 303 304 303 302 305 307 310 310 310 309 311 312 311 312 313
Wind_Speed
5 6 6 5 6 6 6 5 5 6 6 6 8 7 4 4 5 5 5 4 3 4 2 3 5 6 5 2 3 0 3 3 3 3 2 1 1 2 3 5 5 7 7 8 9
6 5 6 6 6 6 7 6 6 7 7 7 7 7 8 8 8 8 6 4 5 3 5 8 4 4 1 2 2 3 3 4 1 2 2 3 2 4 5 5 7 13 14 15 15
7 7 6 6 6 6 6 6 7 7 8 7 7 7 8 8 8 2 1 6 5 5 7 7 5 6 2 3 3 3 5 1 1 1 2 2 5 5 4 6 16 13 23 22 19
8 8 7 7 7 7 7 8 7 8 8 7 6 7 7 5 3 2 0 2 4 5 6 8 6 3 2 3 4 1 7 3 2 0 2 2 5 7 13 12 5 6 6 20 23
8 9 9 8 8 8 7 7 8 8 8 7 6 5 5 4 6 5 4 2 4 7 8 7 5 2 2 1 2 3 4 3 5 6 7 8 10 9 20 21 20 18 18 14 15
8 8 9 10 9 8 8 8 8 8 8 7 6 5 3 4 5 5 6 4 6 9 9 9 1 3 2 0 3 2 8 12 7 6 6 5 4 8 8 4 14 23 21 18 17
9 9 9 9 10 9 9 9 8 8 9 7 6 6 8 9 6 4 4 4 6 9 8 10 6 3 1 2 3 4 6 6 6 5 3 4 5 8 14 7 6 11 19 18 18
9 9 10 10 10 10 9 8 9 9 8 7 6 6 6 7 8 10 6 5 7 9 8 7 7 4 2 2 3 2 1 4 1 6 1 0 8 5 6 13 14 13 14 15 17
10 9 9 9 10 9 9 9 8 8 7 6 4 5 7 5 7 9 7 5 6 7 6 6 7 2 2 3 3 2 3 4 3 5 1 4 8 5 8 11 15 16 17 19 14
11 10 9 9 8 8 8 8 8 8 7 7 8 5 8 5 5 7 9 8 4 8 7 5 3 1 1 3 4 3 3 4 4 2 2 4 15 15 25 22 25 21 17 18 21
12 11 10 9 8 6 6 6 5 3 7 9 4 3 3 5 5 8 12 11 8 3 3 4 3 7 9 7 1 2 2 4 5 2 2 7 9 19 13 16 12 13 11 13 16
14 10 13 11 11 8 8 3 3 4 8 13 17 16 13 6 4 10 14 9 6 5 4 3 7 7 4 4 3 2 1 5 1 2 2 7 15 12 3 2 4 3 1 7 16
12 14 12 14 13 11 8 9 5 6 4 8 14 15 13 15 7 12 20 8 4 5 7 6 1 2 3 2 3 3 4 2 3 7 3 6 7 2 1 3 3 4 4 10 18
17 16 15 20 13 12 10 8 7 4 4 5 4 3 8 8 5 10 21 7 4 9 6 5 0 3 2 3 5 2 1 2 2 4 3 3 5 6 3 3 4 7 8 12 12
12 15 17 16 7 7 3 10 12 6 2 1 4 3 7 5 7 4 18 6 7 6 6 5 4 3 3 2 1 4 2 3 2 0 3 2 3 7 3 5 7 9 12 13 13
11 10 15 19 19 11 8 14 12 5 8 2 3 4 5 3 2 4 3 2 3 4 4 2 1 1 2 3 3 5 3 4 4 2 2 3 5 6 4 5 4 6 14 15 14
7 11 13 14 18 15 20 12 4 4 4 2 3 4 3 5 4 4 5 5 6 5 2 2 2 1 2 4 5 1 4 3 4 3 5 2 2 9 5 4 7 10 18 17 14
9 10 10 8 15 24 29 4 6 4 4 2 3 4 5 5 3 5 5 5 6 2 3 6 5 7 4 3 5 6 5 5 6 3 3 3 5 5 1 3 9 18 17 16 15
9 7 14 15 13 26 22 3 6 6 4 7 3 3 4 2 4 4 6 5 8 10 7 5 4 2 4 3 1 5 4 2 7 2 3 4 7 6 2 1 6 12 17 18 16
11 9 9 12 10 31 4 4 5 4 1 4 6 4 5 4 5 7 7 5 5 13 5 4 2 2 4 2 1 2 2 3 3 3 3 4 5 6 6 9 8 7 16 19 16
11 6 9 12 26 17 4 7 5 10 2 2 4 1 5 6 6 5 4 3 3 2 13 4 4 4 2 6 7 2 2 3 2 4 5 2 6 6 8 10 12 10 22 22 19
8 3 14 20 5 4 3 6 5 5 8 2 3 5 4 7 6 6 6 4 7 7 6 3 4 4 6 3 2 2 4 6 4 5 2 3 6 3 7 6 12 19 23 20 19
6 8 15 28 5 5 1 4 6 5 5 5 6 6 1 3 3 6 4 3 4 4 4 4 3 2 6 3 2 6 6 4 2 3 6 6 5 1 3 4 6 15 16 18 19
7 3 6 20 7 6 4 4 5 8 4 2 2 2 1 2 3 1 3 3 4 4 3 2 1 5 6 3 4 5 9 13 6 3 4 6 4 6 7 7 7 11 17 18 19
10 6 8 6 7 11 12 6 8 5 6 9 3 10 7 5 2 6 7 3 4 3 2 2 4 3 5 5 3 5 6 10 17 17 8 6 8 7 9 10 14 15 14 17 20
8 4 8 2 13 14 17 11 8 8 8 7 9 5 8 9 10 5 6 3 5 2 4 1 3 1 4 3 3 5 8 8 12 3 5 1 6 9 14 13 12 19 18 20 19
22 8 5 9 3 8 16 17 12 15 10 12 9 8 10 14 11 6 9 5 4 4 6 5 3 1 6 1 2 9 9 10 6 6 12 14 23 3 5 8 15 19 20 21 17
Wind_Direction
315 322 327 331 338 340 344 338 329 324 324 323 319 301 284 289 300 287 273 250 258 282 239 156 151 135 135 114 214 254 57 266 282 6 139 184 111 195 232 223 213 218 220 216 197
301 306 312 317 322 330 333 335 331 325 319 320 318 309 289 286 293 286 259 259 273 247 172 141 105 130 195 170 174 113 134 233 359 25 52 337 256 226 217 243 243 231 236 239 243
288 295 296 301 305 312 319 326 329 326 320 315 315 311 308 301 299 289 278 238 260 207 185 180 154 175 218 182 203 173 203 197 71 102 334 286 302 251 225 257 245 244 225 222 233
282 283 286 292 295 301 309 317 322 323 321 313 310 318 310 299 271 15 91 245 226 195 180 157 153 167 205 191 199 235 275 235 184 233 315 255 301 285 237 237 226 243 210 222 227
270 278 283 284 287 293 300 307 312 318 320 317 308 318 305 274 255 261 273 286 207 190 172 153 189 230 219 191 140 191 277 277 273 268 277 265 263 255 267 262 252 262 246 237 227
277 272 273 279 283 287 292 298 305 311 312 311 300 303 279 276 259 276 262 241 206 189 181 176 183 287 278 269 156 286 289 281 283 234 252 246 252 349 266 290 237 242 242 238 243
284 283 277 270 275 281 286 292 297 303 307 304 295 284 271 260 259 286 262 220 202 190 186 193 214 209 286 300 293 294 313 307 232 217 224 306 284 222 258 221 245 241 232 237 245
276 285 289 282 270 274 280 287 292 297 299 292 286 282 262 256 256 258 243 208 190 193 200 202 206 217 212 297 300 287 218 341 351 142 231 51 275 290 235 219 236 231 232 245 243
267 277 285 291 285 274 279 282 288 294 288 277 272 267 271 255 244 229 211 183 169 184 191 168 164 217 146 113 358 308 254 228 286 192 124 201 273 264 208 221 238 239 235 230 231
262 271 277 283 292 284 280 285 290 284 267 256 226 272 237 226 229 205 187 169 141 148 138 149 165 140 12 110 220 201 243 302 281 209 212 246 261 268 264 260 248 243 243 232 223
255 264 268 274 282 295 288 298 296 273 237 226 167 205 227 209 204 193 181 171 139 157 151 191 128 214 213 204 165 123 223 264 272 222 266 248 275 281 274 270 236 239 242 237 223
245 255 265 267 276 274 269 298 292 322 302 270 248 245 245 205 191 194 176 174 166 190 142 64 230 225 144 135 178 165 265 280 285 162 261 300 289 296 297 99 157 140 314 198 167
242 249 263 262 263 262 244 218 240 351 283 275 238 224 220 217 227 206 184 180 172 190 183 167 207 164 180 153 166 217 190 220 240 323 268 301 295 323 344 103 138 154 144 163 169
243 245 252 255 250 248 243 214 185 41 353 266 208 209 201 185 229 187 185 173 184 192 170 237 245 189 172 208 147 233 162 122 43 36 258 16 283 300 213 218 207 199 166 166 180
255 237 233 262 211 193 195 187 168 141 336 160 163 171 171 186 128 165 186 193 173 178 124 235 167 179 181 174 214 212 96 105 100 4 4 314 77 270 170 230 233 210 192 189 188
242 231 220 232 226 214 169 164 148 60 250 183 136 164 129 162 88 84 148 141 121 105 59 113 287 280 134 67 43 146 93 52 57 76 3 243 127 279 207 206 196 196 191 193 191
232 217 227 238 218 191 148 152 63 177 327 228 187 157 199 154 138 160 167 180 161 108 211 4 218 191 163 90 8 93 82 344 347 8 219 10 88 247 263 254 186 178 184 190 187
234 227 205 217 203 168 152 74 199 224 245 192 118 131 175 137 180 183 152 192 248 110 109 160 287 174 182 208 177 183 170 161 202 205 248 16 239 250 255 88 174 176 182 185 189
221 201 205 208 175 167 145 183 209 206 200 151 154 137 213 168 137 148 198 214 205 174 186 151 277 348 42 353 76 198 194 172 103 25 51 217 278 297 141 200 139 165 177 188 194
199 199 211 214 223 169 136 220 229 232 126 141 191 149 180 198 166 184 195 212 222 185 167 216 29 345 318 327 261 168 310 86 2 146 235 287 276 239 212 225 216 206 192 195 198
182 185 192 212 178 164 197 206 218 243 175 214 173 256 203 175 188 202 218 290 222 196 186 134 134 306 32 207 186 154 252 221 145 162 173 181 255 214 206 208 204 204 206 203 199
166 192 181 185 147 209 184 168 214 208 180 207 159 190 237 163 180 207 227 250 7 131 159 206 114 170 200 263 328 290 216 179 144 230 240 152 272 213 186 215 192 202 206 204 203
188 185 182 186 215 192 228 210 201 216 189 176 228 195 222 179 209 184 227 11 32 70 130 188 228 41 339 346 351 215 205 208 137 96 201 146 251 281 282 258 214 197 190 187 192
188 170 174 216 214 184 170 210 217 195 259 171 348 231 143 335 343 249 72 22 30 84 47 86 141 192 199 238 129 184 212 203 169 139 186 216 259 227 246 224 231 194 184 191 203
206 214 189 192 214 220 213 175 190 177 190 183 218 225 187 192 156 235 259 120 66 43 52 151 235 183 253 264 232 213 216 200 210 216 195 227 205 235 219 213 214 212 208 206 211
187 193 198 166 194 199 215 213 200 209 174 210 217 168 221 206 196 188 177 124 203 6 183 134 254 132 281 292 258 261 244 196 227 295 305 282 275 224 242 205 217 226 216 221 227
215 211 199 197 194 192 215 221 224 227 242 233 198 220 237 244 225 254 196 171 177 180 183 161 164 102 266 326 321 285 205 197 194 207 207 228 238 144 249 239 207 219 217 220 223